Find Starlink 32036

NORAD ID: 60141 Int'l Des: 2024-120 Owner: SPXS Country: US Constellation: starlink operational
LEOCIRCULAR

Live-Position

3D-Globus wird geladen...

Über Starlink 32036

Beschreibung wird geladen...

Nächste Überflüge

Passes for default location (London). Set your location on the main map for personalized predictions.

Höhenverlauf

Loading altitude history...

Zweizeiliger Elementsatz

1 60141U 24120G 26126.49875137 -.00004971 00000-0 -15591-3 0 9999
2 60141 53.1607 51.6465 0001192 73.7899 286.3232 15.30179342105309
Epoch: 6. Mai 2026 • Age: 14 hours

Aktueller Status

Höhe 478.7 km
Geschwindigkeit 7.63 km/s
Subsatellitenpunkt -12.53°S, 144.31°E
Startdatum 27. Juni 2024
Alter 1.8 years
Typ internet

Technische Details

Klassifizierung Payload
Masse 730.00 kg
Trockenmasse 700.00 kg
Gesamtmasse 730.00 kg
Länge 0.30 m
Durchmesser 4.10 m
Spannweite 29.00 m
Form Box + pan
Hersteller SPXS
Bus-Typ Starlink V2M
Phasenstatus In Orbit
Besitzer/Staat SPXS/US

Most Searched